Flag for Denmark Weather past 2 weeks in Esbjerg, Denmark

Now
36 °F

Passing clouds.


Feels Like: 36 °F
Forecast: 42 / 47 °F
Wind: 1 mph from Southwest

Location: Esbjerg Airport

Current Time: Apr 27, 2015 at 6:11:10 AM

Latest Report: Apr 27, 2015 at 5:20 AM


Visibility: N/A

Pressure: 29.71 "Hg

Humidity: 93%

Dew point: 34 °F

Location of EsbjergLocation

Historic Weather in Esbjerg — Graph

°F

Esbjerg temperature yesterday

Maximum temperature yesterday: 52 °F (at 4:20 PM)
Minimum temperature yesterday: 36 °F (at 11:50 PM)
Average temperature yesterday: 45 °F

Past Weeks' High & Low Weather Summary

 TemperatureHumidityPressure
High68 °F (Apr 20, 3:20 PM)100% (Apr 18, 4:50 AM)30.39 "Hg (Apr 18, 4:50 AM)
Low32 °F (Apr 18, 4:50 AM)32% (Apr 20, 12:50 PM)29.59 "Hg (Apr 25, 6:50 AM)
Average46 °F80%30.06 "Hg
* Reported Apr 12 4:20 AM — Apr 27 4:50 AM, Esbjerg, Weather by CustomWeather, © 2015

Note: Actual official high and low records may vary slightly from our data, if they occured in-between our weather recording intervals... More about our weather records

Advertising

Esbjerg weather history for previous 24 hours

 ConditionsComfort  
Time TempWeatherWind HumidityBarometerVisibility
4:50 AM
Mon, Apr 27
36 °FChilly.1 mph93%29.71 "HgN/A
4:20 AM36 °FPassing clouds.2 mph93%29.71 "HgN/A
3:50 AM36 °FChilly.2 mph100%29.71 "HgN/A
3:20 AM36 °FChilly.1 mph93%29.71 "HgN/A
2:50 AM36 °FChilly.1 mph93%29.71 "HgN/A
2:20 AM36 °FChilly.2 mph100%29.74 "HgN/A
1:50 AM36 °FChilly.2 mph93%29.74 "HgN/A
1:20 AM37 °FChilly.2 mph93%29.74 "HgN/A
12:50 AM37 °FChilly.1 mph87%29.74 "HgN/A
12:20 AM37 °FChilly.3 mph87%29.74 "HgN/A
11:50 PM
Sun, Apr 26
36 °FChilly.3 mph93%29.74 "HgN/A
11:20 PM37 °FChilly.2 mph87%29.74 "HgN/A
10:50 PM39 °FChilly.2 mph87%29.74 "HgN/A
10:20 PM39 °FChilly.2 mph81%29.74 "HgN/A
9:50 PM41 °FQuite cool.2 mph76%29.74 "HgN/A
9:20 PM41 °FQuite cool.2 mph81%29.74 "HgN/A
8:50 PM43 °FQuite cool.3 mph76%29.74 "HgN/A
8:20 PM45 °FQuite cool.6 mph66%29.74 "HgN/A
7:50 PM46 °FCool.8 mph62%29.74 "HgN/A
7:20 PM45 °FQuite cool.8 mph66%29.74 "HgN/A
6:50 PM48 °FCool.8 mph58%29.74 "HgN/A
6:20 PM48 °FCool.8 mph54%29.74 "HgN/A
5:50 PM46 °FCool.12 mph53%29.74 "HgN/A
5:20 PM50 °FCool.12 mph50%29.74 "HgN/A
4:50 PM50 °FCool.12 mph54%29.74 "HgN/A
4:20 PM52 °FPassing clouds.10 mph50%29.74 "HgN/A
3:50 PM50 °FScattered clouds.10 mph50%29.74 "HgN/A
3:20 PM50 °FScattered clouds.9 mph50%29.74 "HgN/A
2:50 PM50 °FPartly sunny.10 mph58%29.74 "HgN/A
2:20 PM50 °FBroken clouds.9 mph54%29.74 "HgN/A
1:50 PM48 °FBroken clouds.8 mph58%29.74 "HgN/A
1:20 PM48 °FPartly sunny.10 mph58%29.74 "HgN/A
12:50 PM48 °FBroken clouds.6 mph66%29.74 "HgN/A
12:20 PM48 °FPartly sunny.5 mph62%29.74 "HgN/A
11:50 AM46 °FPartly sunny.3 mph66%29.74 "HgN/A
11:20 AM46 °FPartly sunny.5 mph66%29.74 "HgN/A
10:50 AM46 °FPartly sunny.3 mph71%29.74 "HgN/A
10:20 AM46 °FPartly sunny.5 mph71%29.74 "HgN/A
9:50 AM46 °FBroken clouds.6 mph71%29.71 "HgN/A
9:20 AM46 °FPartly sunny.7 mph76%29.71 "HgN/A
8:50 AM45 °FOvercast.6 mph81%29.71 "HgN/A
8:20 AM45 °FOvercast.5 mph81%29.71 "HgN/A
7:50 AM43 °FOvercast.5 mph87%29.71 "HgN/A
7:20 AM43 °FPartly sunny.1 mph93%29.71 "HgN/A
6:50 AM41 °FPassing clouds.1 mph93%29.71 "HgN/A
6:20 AM41 °FPassing clouds.2 mph93%29.68 "HgN/A
Weather by CustomWeather, © 2015

See weather overviewHow to use our weather pages